User: anonymous   Login
Location: Estes Park
(40.3770°N, 105.5210°W)
Time: 08:48:44
(UTC-06:00)
Language:

POLYITAN 1 - Orbit

View from above orbital plane
View from above orbital plane
View from above satellite
View from above satellite

Ground track
Ground track

The orbit data is extracted from the following two-line orbital elements,

1 40042U 14033AJ  18199.19560627  .00000252  00000-0  33180-4 0  9993
2 40042  97.9114 114.6721 0016205  73.5517 286.7479 14.88422604221329
Epoch (UTC): 18 July 2018 04:41:40
Eccentricity: 0.0016205
inclination: 97.9114°
perigee height: 591 km
apogee height: 614 km
right ascension of ascending node: 114.6721°
argument of perigee: 73.5517°
revolutions per day: 14.88422604
mean anomaly at epoch: 286.7479°
orbit number at epoch: 22132

The dashed part of the orbit path shows where the satellite is in the earth's shadow,  

DLR